Location: *
(48.4333°N, 5.0333°W)
Time: 01:43:51
(UTC+00:00)

SJ-6B - Pass Details

Date: 21 June 2021
Orbit: 509 x 581 km, 97.6° (Epoch: 02 August)

Event Time Altitude Azimuth Distance (km) Brightness Sun altitude
Rises 21:18:00 0° 211° (SSW) 2,775 6.2 -7.2°
Reaches altitude 10° 21:21:00 10° 235° (SW) 1,873 5.6 -7.5°
Maximum altitude 21:23:18 15° 270° (W) 1,588 5.8 -7.8°
Drops below altitude 10° 21:25:36 10° 305° (NW) 1,862 7.0 -8.0°
Sets 21:28:35 0° 330° (NNW) 2,748 8.5 -8.3°
